Regional Weather Roundup
Issued by NWS

Home | Current Version | Previous Version | Text Only | Print | Product List | Glossary On
Versions: 1 2 3 4 5 6 7 8 9 10 11 12 13 14 15 16 17 18 19 20 21 22 23 24 25 26 27 28 29 30 31 32 33 34 35 36 37 38 39 40 41 42 43 44 45 46 47 48 49 50
000
ASUS43 KFSD 241902
RWRSD

WEATHER ROUNDUP FOR SOUTH DAKOTA
NATIONAL WEATHER SERVICE SIOUX FALLS SD
200 PM CDT SUN SEP 24 2017

NOTE: "FAIR" INDICATES FEW OR NO CLOUDS BELOW 12,000 FEET WITH NO
SIGNIFICANT WEATHER AND/OR OBSTRUCTIONS TO VISIBILITY.


SDZ001>005-009-010-012>017-242000-
NORTHWEST AND NORTH CENTRAL SOUTH DAKOTA

CITY           SKY/WX    TMP DP  RH WIND       PRES   REMARKS
BUFFALO          N/A     48  43  82 N13       30.01F
FAITH            N/A     49  46  90 N14       30.04R
MOBRIDGE       CLOUDY    54  49  83 N16G23    29.97R
$$

SDZ012>016-024>037-041>051-057-063-072>074-242000-
SOUTHWEST AND SOUTH CENTRAL SOUTH DAKOTA

CITY           SKY/WX    TMP DP  RH WIND       PRES   REMARKS
RAPID CTY ARPT CLOUDY    52  43  71 NW15      30.07R
PIERRE         CLOUDY    54  48  80 NW15      29.98S
CUSTER         CLOUDY    44  37  76 VRB3      30.05S
ELLSWORTH AFB  CLOUDY    48  45  87 N16       30.06
PHILIP         CLOUDY    53  48  83 N13       30.03R
PINE RIDGE     CLOUDY    50  46  86 N12       30.05S
SPEARFISH      FAIR      43  43 100 NW5       30.09R FOG
WINNER         CLOUDY    55  51  86 NW12      30.00R
$$

SDZ004>011-016>023-039-040-242000-
NORTHEAST SOUTH DAKOTA

CITY           SKY/WX    TMP DP  RH WIND       PRES   REMARKS
ABERDEEN       LGT RAIN  53  52  96 NW9       29.93R
WATERTOWN      RAIN      61  59  93 W13       29.89R
BROOKINGS      CLOUDY    63  61  93 W16       29.90R
SISSETON         N/A     65  60  84 SW10      29.87R
$$

SDZ017-020-022-023-036>040-048>070-242000-
SOUTHEAST SOUTH DAKOTA

CITY           SKY/WX    TMP DP  RH WIND       PRES   REMARKS
SIOUX FALLS    LGT RAIN  70  63  78 W17G29    29.89R
HURON          RAIN      55  54  96 NW10      29.93S
CHAMBERLAIN    CLOUDY    55  55  99 NW14      29.98S
MITCHELL       LGT RAIN  59  57  93 W10       29.94S
YANKTON        CLOUDY    64  57  78 W16       29.93S
$$

ABBREVIATIONS USED IN REMARKS
   TC - TEMPERATURE IN CELSIUS
  WCI - WIND CHILL INDEX
   HX - HEAT INDEX
  VSB - VISIBILITY





USA.gov is the U.S. government's official web portal to all federal, state and local government web resources and services.